| time (UTC) | temp F | wind direction | speed knots | gust knots | rain 1hr in | rain 24hr in | rain mn in | humidity % | barometer mb |
| 20260507025823 | 67 | 189 | 0.0 | 1.7 | 0.00 | 0.00 | 0.00 | 73 | 1017.7 |
| 20260507025319 | 68 | 218 | 0.9 | 1.7 | 0.00 | 0.00 | 0.00 | 72 | 1017.6 |
| 20260507024819 | 68 | 216 | 0.0 | 1.7 | 0.00 | 0.00 | 0.00 | 70 | 1017.5 |
| 20260507024319 | 69 | 235 | 0.0 | 1.7 | 0.00 | 0.00 | 0.00 | 70 | 1017.4 |
| 20260507023819 | 70 | 260 | 0.0 | 0.9 | 0.00 | 0.00 | 0.00 | 68 | 1017.4 |
| 20260507023324 | 71 | 0.0 | 0.0 | 0.00 | 0.00 | 0.00 | 66 | 1017.4 | |
| 20260507022819 | 71 | 0.0 | 0.0 | 0.00 | 0.00 | 0.00 | 66 | 1017.4 | |
| 20260507022319 | 72 | 272 | 0.0 | 0.0 | 0.00 | 0.00 | 0.00 | 65 | 1017.4 |
| 20260507021819 | 72 | 0.0 | 0.0 | 0.00 | 0.00 | 0.00 | 66 | 1017.4 | |
| 20260507021404 | 73 | 241 | 0.0 | 0.9 | 0.00 | 0.00 | 0.00 | 66 | 1017.4 |
| 20260507020820 | 75 | 270 | 0.9 | 1.7 | 0.00 | 0.00 | 0.00 | 56 | 1017.3 |
| 20260507020400 | 75 | 131 | 0.0 | 0.9 | 0.00 | 0.00 | 0.00 | 55 | 1017.3 |
| 20260507015720 | 75 | 266 | 0.9 | 0.9 | 0.00 | 0.00 | 0.00 | 54 | 1017.3 |
| 20260507015349 | 0 | 252 | 0.0 | 0.9 | 0.00 | 0.00 | 0.00 | ||
| 20260507014742 | 75 | 145 | 0.0 | 0.9 | 0.00 | 0.00 | 0.00 | 59 | 1017.3 |
| 20260507014218 | 75 | 234 | 0.9 | 1.7 | 0.00 | 0.00 | 0.00 | 58 | 1017.4 |
| 20260507013732 | 74 | 298 | 0.0 | 0.9 | 0.00 | 0.00 | 0.00 | 59 | 1017.5 |
| 20260507013232 | 74 | 261 | 0.9 | 1.7 | 0.00 | 0.00 | 0.00 | 59 | 1017.5 |
| 20260507012745 | 74 | 257 | 0.9 | 1.7 | 0.00 | 0.00 | 0.00 | 61 | 1017.5 |
| 20260507012221 | 74 | 273 | 0.9 | 1.7 | 0.00 | 0.00 | 0.00 | 59 | 1017.5 |
| 20260507011751 | 75 | 253 | 0.9 | 1.7 | 0.00 | 0.00 | 0.00 | 58 | 1017.4 |
| 20260507011218 | 74 | 270 | 0.9 | 1.7 | 0.00 | 0.00 | 0.00 | 61 | 1017.4 |
| 20260507010718 | 74 | 262 | 0.9 | 1.7 | 0.00 | 0.00 | 0.00 | 62 | 1017.4 |
| 20260507010218 | 74 | 275 | 0.9 | 1.7 | 0.00 | 0.00 | 0.00 | 59 | 1017.4 |
| 20260507005718 | 74 | 273 | 0.9 | 1.7 | 0.00 | 0.00 | 0.00 | 59 | 1017.3 |
| 20260507005218 | 73 | 243 | 0.9 | 1.7 | 0.00 | 0.00 | 0.00 | 59 | 1017.3 |
| 20260507004718 | 71 | 258 | 0.9 | 2.6 | 0.00 | 0.00 | 0.00 | 63 | 1017.3 |
| 20260507004241 | 71 | 78 | 0.9 | 1.7 | 0.00 | 0.00 | 0.00 | 64 | 1017.3 |
| 20260507003739 | 70 | 253 | 0.9 | 1.7 | 0.00 | 0.00 | 0.00 | 68 | 1017.4 |
| 20260507003220 | 0 | 299 | 0.9 | 0.9 | 0.00 | 0.00 | 0.00 | ||
| 20260507002320 | 72 | 159 | 0.9 | 2.6 | 0.00 | 0.00 | 0.00 | 64 | 1017.4 |
| 20260507001819 | 71 | 258 | 0.9 | 1.7 | 0.00 | 0.00 | 0.00 | 64 | 1017.4 |
| 20260507001319 | 71 | 249 | 0.9 | 2.6 | 0.00 | 0.00 | 0.00 | 66 | 1017.3 |
| 20260507000820 | 71 | 260 | 1.7 | 2.6 | 0.00 | 0.00 | 0.00 | 64 | 1017.3 |
| 20260507000321 | 72 | 270 | 0.9 | 1.7 | 0.00 | 0.00 | 0.00 | 63 | 1017.3 |
| 20260506235841 | 71 | 271 | 1.7 | 2.6 | 0.00 | 0.00 | 0.00 | 64 | 1017.3 |
| 20260506235317 | 70 | 260 | 1.7 | 3.5 | 0.00 | 0.00 | 0.00 | 66 | 1017.3 |
| 20260506234816 | 70 | 243 | 0.9 | 2.6 | 0.00 | 0.00 | 0.00 | 67 | 1017.4 |
| 20260506234316 | 70 | 268 | 0.9 | 2.6 | 0.00 | 0.00 | 0.00 | 66 | 1017.4 |
| 20260506233816 | 70 | 254 | 1.7 | 2.6 | 0.00 | 0.00 | 0.00 | 67 | 1017.4 |
| 20260506233320 | 70 | 256 | 1.7 | 2.6 | 0.00 | 0.00 | 0.00 | 66 | 1017.4 |
| 20260506232819 | 71 | 271 | 1.7 | 3.5 | 0.00 | 0.00 | 0.00 | 64 | 1017.5 |
| 20260506232320 | 71 | 269 | 0.9 | 2.6 | 0.00 | 0.00 | 0.00 | 64 | 1017.5 |
| 20260506231820 | 71 | 318 | 0.9 | 2.6 | 0.00 | 0.00 | 0.00 | 65 | 1017.5 |
| 20260506231405 | 71 | 277 | 1.7 | 2.6 | 0.00 | 0.00 | 0.00 | 64 | 1017.5 |
| 20260506230817 | 71 | 232 | 1.7 | 3.5 | 0.00 | 0.00 | 0.00 | 62 | 1017.6 |
| 20260506230338 | 71 | 244 | 1.7 | 3.5 | 0.00 | 0.00 | 0.00 | 62 | 1017.7 |
| 20260506225817 | 71 | 272 | 0.9 | 2.6 | 0.00 | 0.00 | 0.00 | 63 | 1017.7 |
| 20260506225317 | 71 | 264 | 0.9 | 4.3 | 0.00 | 0.00 | 0.00 | 65 | 1017.7 |
| 20260506224819 | 71 | 263 | 0.9 | 1.7 | 0.00 | 0.00 | 0.00 | 63 | 1017.8 |
| 20260506224324 | 0 | 92 | 0.0 | 0.0 | 0.00 | 0.00 | 0.00 | ||
| 20260506223720 | 71 | 214 | 1.7 | 2.6 | 0.00 | 0.00 | 0.00 | 62 | 1017.9 |
| 20260506223217 | 72 | 320 | 1.7 | 3.5 | 0.00 | 0.00 | 0.00 | 61 | 1017.9 |
| 20260506222738 | 71 | 320 | 0.9 | 3.5 | 0.00 | 0.00 | 0.00 | 60 | 1017.9 |
| 20260506222218 | 71 | 261 | 1.7 | 2.6 | 0.00 | 0.00 | 0.00 | 62 | 1018.0 |
| 20260506221800 | 70 | 263 | 0.9 | 3.5 | 0.00 | 0.00 | 0.00 | 64 | 1018.1 |
| 20260506221238 | 70 | 281 | 1.7 | 3.5 | 0.00 | 0.00 | 0.00 | 63 | 1018.2 |
| 20260506220740 | 0 | 262 | 0.9 | 1.7 | 0.00 | 0.00 | 0.00 |